VCV2 SVMI-SVMG

Flight info

Callsign VCV2
Flight time 0h 38m
Altitude 27000
Route OSMAR2 OSMAR DCT AKNUR UW19 CHALO
Aircraft E190/M-SDE3GILORVW/S

Departure

Time 2026-04-28 15:07
Airport Maiquetía Simón Bolívar International Airport (SVMI)

Arrival

Time 2026-04-28 15:45
Airport Del Caribe Santiago Mariño International Airport (SVMG)
Time Latitude Longitude Altitude Speed Heading
2026-04-28 14:40 10.59831 -67.00228 222 ft 0 kts 178°
2026-04-28 14:58 10.59854 -67.00229 174 ft 4 kts 178°
2026-04-28 14:58 10.59878 -67.00230 197 ft 2 kts 178°
2026-04-28 14:59 10.59902 -67.00227 199 ft 4 kts 225°
2026-04-28 14:59 10.59909 -67.00206 197 ft 4 kts 277°
2026-04-28 14:59 10.59907 -67.00181 196 ft 1 kts 268°
2026-04-28 14:59 10.59907 -67.00180 196 ft 0 kts 268°
2026-04-28 15:01 10.59906 -67.00184 199 ft 2 kts 268°
2026-04-28 15:01 10.59907 -67.00203 196 ft 4 kts 271°
2026-04-28 15:02 10.59911 -67.00237 197 ft 6 kts 283°
2026-04-28 15:02 10.59936 -67.00281 198 ft 8 kts 318°
2026-04-28 15:02 10.59992 -67.00310 225 ft 10 kts 309°
2026-04-28 15:02 10.60001 -67.00387 225 ft 12 kts 269°
2026-04-28 15:03 10.59998 -67.00481 227 ft 14 kts 268°
2026-04-28 15:03 10.59995 -67.00587 228 ft 16 kts 269°
2026-04-28 15:03 10.59991 -67.00699 230 ft 16 kts 268°
2026-04-28 15:03 10.59988 -67.00812 232 ft 16 kts 269°
2026-04-28 15:04 10.59985 -67.00925 234 ft 16 kts 268°
2026-04-28 15:04 10.59982 -67.01038 236 ft 16 kts 268°
2026-04-28 15:04 10.59978 -67.01145 238 ft 13 kts 268°
2026-04-28 15:04 10.59988 -67.01222 240 ft 10 kts 306°
2026-04-28 15:05 10.60052 -67.01243 240 ft 10 kts 356°
2026-04-28 15:05 10.60132 -67.01246 239 ft 13 kts 358°
2026-04-28 15:05 10.60239 -67.01250 237 ft 16 kts 358°
2026-04-28 15:05 10.60345 -67.01254 240 ft 9 kts 358°
2026-04-28 15:06 10.60378 -67.01242 240 ft 4 kts 60°
2026-04-28 15:06 10.60380 -67.01227 240 ft 0 kts 88°
2026-04-28 15:06 10.60382 -67.01180 239 ft 17 kts 86°
2026-04-28 15:06 10.60392 -67.00887 232 ft 74 kts 88°
2026-04-28 15:07 10.60416 -67.00138 224 ft 136 kts 88°
2026-04-28 15:07 10.60464 -66.99032 454 ft 172 kts 88°
2026-04-28 15:07 10.60578 -66.97725 900 ft 194 kts 82°
2026-04-28 15:07 10.60918 -66.96393 1304 ft 203 kts 70°
2026-04-28 15:08 10.61480 -66.95047 2190 ft 209 kts 69°
2026-04-28 15:08 10.62007 -66.93664 3117 ft 213 kts 72°
2026-04-28 15:08 10.62487 -66.92180 3774 ft 234 kts 74°
2026-04-28 15:08 10.62980 -66.90523 4089 ft 252 kts 75°
2026-04-28 15:09 10.63498 -66.88758 4090 ft 264 kts 75°
2026-04-28 15:09 10.64033 -66.86967 4078 ft 265 kts 74°
2026-04-28 15:09 10.64585 -66.85180 4075 ft 265 kts 74°
2026-04-28 15:09 10.65136 -66.83390 4032 ft 265 kts 75°
2026-04-28 15:10 10.65674 -66.81595 4001 ft 265 kts 75°
2026-04-28 15:10 10.66201 -66.79809 4003 ft 264 kts 75°
2026-04-28 15:10 10.66731 -66.78020 4023 ft 265 kts 75°
2026-04-28 15:10 10.67261 -66.76224 4016 ft 265 kts 76°
2026-04-28 15:11 10.67796 -66.74422 4019 ft 266 kts 75°
2026-04-28 15:11 10.68331 -66.72625 4018 ft 266 kts 76°
2026-04-28 15:11 10.68850 -66.70858 4021 ft 264 kts 76°
2026-04-28 15:11 10.69379 -66.69078 4015 ft 262 kts 76°
2026-04-28 15:12 10.69901 -66.67302 4026 ft 262 kts 75°
2026-04-28 15:12 10.70429 -66.65521 4035 ft 264 kts 76°
2026-04-28 15:12 10.70959 -66.63741 4024 ft 262 kts 75°
2026-04-28 15:12 10.71486 -66.61967 4033 ft 262 kts 76°
2026-04-28 15:13 10.72007 -66.60192 4034 ft 262 kts 76°
2026-04-28 15:13 10.72529 -66.58410 4029 ft 263 kts 76°
2026-04-28 15:13 10.73052 -66.56627 4730 ft 263 kts 76°
2026-04-28 15:13 10.73573 -66.54827 5927 ft 266 kts 77°
2026-04-28 15:14 10.74035 -66.52993 7091 ft 269 kts 78°
2026-04-28 15:14 10.74491 -66.51144 8202 ft 271 kts 77°
2026-04-28 15:14 10.74971 -66.49278 9282 ft 275 kts 77°
2026-04-28 15:14 10.75468 -66.47382 10319 ft 283 kts 77°
2026-04-28 15:15 10.75988 -66.45359 10929 ft 304 kts 77°
2026-04-28 15:15 10.76533 -66.43229 11666 ft 319 kts 77°
2026-04-28 15:15 10.77123 -66.41003 12397 ft 333 kts 76°
2026-04-28 15:15 10.77736 -66.38693 13189 ft 344 kts 76°
2026-04-28 15:16 10.78364 -66.36319 14043 ft 351 kts 77°
2026-04-28 15:16 10.79002 -66.33896 14912 ft 358 kts 76°
2026-04-28 15:16 10.79651 -66.31429 15788 ft 364 kts 77°
2026-04-28 15:16 10.80308 -66.28929 16681 ft 369 kts 76°
2026-04-28 15:17 10.80972 -66.26387 17507 ft 375 kts 76°
2026-04-28 15:17 10.81648 -66.23801 18268 ft 381 kts 76°
2026-04-28 15:17 10.82329 -66.21179 18916 ft 386 kts 76°
2026-04-28 15:17 10.83114 -66.18545 19556 ft 392 kts 73°
2026-04-28 15:18 10.83952 -66.15889 20157 ft 397 kts 74°
2026-04-28 15:18 10.84784 -66.13198 20758 ft 401 kts 74°
2026-04-28 15:18 10.85625 -66.10475 21351 ft 406 kts 74°
2026-04-28 15:18 10.86479 -66.07722 21937 ft 410 kts 74°
2026-04-28 15:19 10.87339 -66.04940 22525 ft 414 kts 74°
2026-04-28 15:19 10.88207 -66.02132 23106 ft 418 kts 75°
2026-04-28 15:19 10.89093 -65.99296 23649 ft 423 kts 74°
2026-04-28 15:19 10.89771 -65.96433 24077 ft 423 kts 86°
2026-04-28 15:20 10.89867 -65.93440 24535 ft 424 kts 92°
2026-04-28 15:20 10.89879 -65.90429 24968 ft 428 kts 91°
2026-04-28 15:20 10.89897 -65.87396 25392 ft 430 kts 91°
2026-04-28 15:20 10.89919 -65.84338 25788 ft 434 kts 91°
2026-04-28 15:21 10.89942 -65.81265 26195 ft 436 kts 92°
2026-04-28 15:21 10.89965 -65.78170 26572 ft 439 kts 91°
2026-04-28 15:21 10.89989 -65.75055 26928 ft 442 kts 91°
2026-04-28 15:21 10.90018 -65.71961 27039 ft 430 kts 92°
2026-04-28 15:22 10.90044 -65.69003 27054 ft 406 kts 92°
2026-04-28 15:22 10.90076 -65.66203 27049 ft 385 kts 92°
2026-04-28 15:22 10.90094 -65.63547 27039 ft 366 kts 92°
2026-04-28 15:22 10.90114 -65.61011 27047 ft 351 kts 92°
2026-04-28 15:23 10.90134 -65.58544 27052 ft 347 kts 92°
2026-04-28 15:23 10.90155 -65.56075 27026 ft 351 kts 92°
2026-04-28 15:23 10.90172 -65.53588 27024 ft 352 kts 92°
2026-04-28 15:23 10.90190 -65.51092 27025 ft 353 kts 92°
2026-04-28 15:24 10.90207 -65.48590 27029 ft 354 kts 92°
2026-04-28 15:24 10.90220 -65.46085 27032 ft 354 kts 92°
2026-04-28 15:24 10.90229 -65.43579 27038 ft 354 kts 92°
2026-04-28 15:24 10.90239 -65.41052 26725 ft 361 kts 92°
2026-04-28 15:25 10.90246 -65.38519 26527 ft 355 kts 92°
2026-04-28 15:25 10.90261 -65.36014 26204 ft 354 kts 92°
2026-04-28 15:25 10.90267 -65.33498 25688 ft 356 kts 92°
2026-04-28 15:25 10.90278 -65.30984 25209 ft 355 kts 92°
2026-04-28 15:26 10.90285 -65.28479 24730 ft 353 kts 92°
2026-04-28 15:26 10.90281 -65.25990 24273 ft 351 kts 92°
2026-04-28 15:26 10.90279 -65.23512 23809 ft 350 kts 92°
2026-04-28 15:26 10.90285 -65.21041 23290 ft 348 kts 91°
2026-04-28 15:27 10.90298 -65.18599 22872 ft 343 kts 91°
2026-04-28 15:27 10.90320 -65.16190 22411 ft 339 kts 91°
2026-04-28 15:27 10.90343 -65.13809 21973 ft 335 kts 91°
2026-04-28 15:27 10.90362 -65.11452 21526 ft 331 kts 91°
2026-04-28 15:28 10.90377 -65.09119 21092 ft 328 kts 91°
2026-04-28 15:28 10.90393 -65.06806 20658 ft 325 kts 91°
2026-04-28 15:28 10.90398 -65.04545 20236 ft 323 kts 91°
2026-04-28 15:28 10.90397 -65.02270 19813 ft 320 kts 91°
2026-04-28 15:29 10.90402 -65.00011 19390 ft 318 kts 91°
2026-04-28 15:29 10.90409 -64.97766 18972 ft 316 kts 91°
2026-04-28 15:29 10.90418 -64.95530 18541 ft 315 kts 90°
2026-04-28 15:29 10.90441 -64.93303 18095 ft 314 kts 90°
2026-04-28 15:30 10.90461 -64.91097 17705 ft 310 kts 90°
2026-04-28 15:30 10.90474 -64.88916 17295 ft 306 kts 90°
2026-04-28 15:30 10.90486 -64.86760 16891 ft 303 kts 90°
2026-04-28 15:30 10.90500 -64.84627 16486 ft 300 kts 90°
2026-04-28 15:31 10.90512 -64.82513 16092 ft 298 kts 90°
2026-04-28 15:31 10.90524 -64.80415 15702 ft 295 kts 90°
2026-04-28 15:31 10.90536 -64.78336 15313 ft 293 kts 90°
2026-04-28 15:31 10.90544 -64.76272 14922 ft 291 kts 90°
2026-04-28 15:32 10.90551 -64.74220 14541 ft 289 kts 90°
2026-04-28 15:32 10.90556 -64.72868 14282 ft 288 kts 90°
2026-04-28 15:32 10.90570 -64.70152 13770 ft 286 kts 90°
2026-04-28 15:32 10.90577 -64.68136 13380 ft 283 kts 90°
2026-04-28 15:33 10.90587 -64.66144 13010 ft 280 kts 90°
2026-04-28 15:33 10.90592 -64.64171 12639 ft 277 kts 90°
2026-04-28 15:33 10.90613 -64.62244 12279 ft 275 kts 89°
2026-04-28 15:33 10.90642 -64.60284 11909 ft 272 kts 89°
2026-04-28 15:34 10.90664 -64.58392 11560 ft 270 kts 89°
2026-04-28 15:34 10.90694 -64.56488 11197 ft 268 kts 89°
2026-04-28 15:34 10.90720 -64.54599 10851 ft 266 kts 89°
2026-04-28 15:34 10.90747 -64.52723 10501 ft 265 kts 89°
2026-04-28 15:35 10.90770 -64.50857 10155 ft 263 kts 89°
2026-04-28 15:35 10.90819 -64.47152 9446 ft 259 kts 89°
2026-04-28 15:35 10.90843 -64.45330 9103 ft 256 kts 89°
2026-04-28 15:36 10.90868 -64.43524 8764 ft 254 kts 89°
2026-04-28 15:36 10.90892 -64.41734 8429 ft 252 kts 89°
2026-04-28 15:36 10.90916 -64.39958 8098 ft 250 kts 89°
2026-04-28 15:36 10.90940 -64.38195 7762 ft 248 kts 89°
2026-04-28 15:37 10.90963 -64.36434 7389 ft 249 kts 90°
2026-04-28 15:37 10.90971 -64.34679 7068 ft 247 kts 90°
2026-04-28 15:37 10.90992 -64.32937 6747 ft 246 kts 89°
2026-04-28 15:37 10.91011 -64.31788 6534 ft 245 kts 89°
2026-04-28 15:38 10.91037 -64.29480 6097 ft 243 kts 90°
2026-04-28 15:38 10.91052 -64.27774 5784 ft 240 kts 90°
2026-04-28 15:38 10.91070 -64.26079 5474 ft 239 kts 90°
2026-04-28 15:38 10.91093 -64.24396 5156 ft 237 kts 90°
2026-04-28 15:39 10.91110 -64.22724 4848 ft 235 kts 90°
2026-04-28 15:39 10.91131 -64.21067 4532 ft 232 kts 90°
2026-04-28 15:39 10.91073 -64.19467 4301 ft 218 kts 96°
2026-04-28 15:39 10.91264 -64.18009 4328 ft 208 kts 74°
2026-04-28 15:40 10.91419 -64.16575 3876 ft 205 kts 105°
2026-04-28 15:40 10.90726 -64.15365 3673 ft 195 kts 126°
2026-04-28 15:40 10.89962 -64.14256 3441 ft 188 kts 122°
2026-04-28 15:40 10.89285 -64.13133 3181 ft 184 kts 118°
2026-04-28 15:41 10.88912 -64.11920 2905 ft 179 kts 101°
2026-04-28 15:41 10.88622 -64.10705 2656 ft 175 kts 106°
2026-04-28 15:41 10.88619 -64.09485 2333 ft 173 kts 79°
2026-04-28 15:41 10.88934 -64.08366 2163 ft 157 kts 79°
2026-04-28 15:42 10.89122 -64.07307 1968 ft 150 kts 83°
2026-04-28 15:42 10.89306 -64.06288 1831 ft 143 kts 78°
2026-04-28 15:42 10.89518 -64.05339 1609 ft 131 kts 78°
2026-04-28 15:42 10.89687 -64.04491 1421 ft 120 kts 81°
2026-04-28 15:43 10.89842 -64.03673 1245 ft 116 kts 80°
2026-04-28 15:43 10.90020 -64.02867 1101 ft 118 kts 77°
2026-04-28 15:43 10.90213 -64.02051 926 ft 119 kts 78°
2026-04-28 15:43 10.90361 -64.01216 823 ft 121 kts 78°
2026-04-28 15:44 10.90505 -64.00371 639 ft 121 kts 77°
2026-04-28 15:44 10.90687 -63.99534 409 ft 119 kts 79°
2026-04-28 15:44 10.90844 -63.98714 240 ft 117 kts 78°
2026-04-28 15:44 10.91009 -63.97909 97 ft 113 kts 78°
2026-04-28 15:45 10.91145 -63.97233 68 ft 78 kts 78°
2026-04-28 15:45 10.91206 -63.96945 64 ft 53 kts 78°
2026-04-28 15:45 10.91289 -63.96543 56 ft 23 kts 78°
2026-04-28 15:45 10.91313 -63.96468 52 ft 11 kts 39°
2026-04-28 15:46 10.91385 -63.96470 55 ft 10 kts 349°
2026-04-28 15:46 10.91454 -63.96484 58 ft 11 kts 348°
2026-04-28 15:46 10.91531 -63.96504 56 ft 10 kts 346°
2026-04-28 15:46 10.91571 -63.96568 58 ft 13 kts 269°
2026-04-28 15:47 10.91557 -63.96645 58 ft 10 kts 258°
2026-04-28 15:47 10.91544 -63.96706 59 ft 6 kts 258°
2026-04-28 15:47 10.91534 -63.96755 57 ft 8 kts 258°
2026-04-28 15:47 10.91521 -63.96813 53 ft 9 kts 258°
2026-04-28 15:48 10.91510 -63.96868 58 ft 6 kts 257°
2026-04-28 15:48 10.91536 -63.96894 57 ft 6 kts 342°
2026-04-28 15:48 10.91560 -63.96899 59 ft 3 kts 347°
2026-04-28 15:48 10.91571 -63.96902 59 ft 1 kts 348°
2026-04-28 15:49 10.91575 -63.96903 59 ft 0 kts 348°